Total_Precipitation_Accumulation
1.96 2.27 1.88 1.15 0.96 0.87 0.74 0.68 0.60 0.59 0.57 0.66 0.69 0.73 0.79 0.76 0.74 0.79 0.90 0.99 1.02 1.04 1.14 1.44 1.88 2.19 2.65 3.14 3.34 3.45 3.48 3.68 4.01 3.93 3.62 3.34 3.07 2.83 2.63 2.54 2.44 2.20 2.04 1.93
1.91 1.65 1.01 0.77 0.85 0.94 0.93 0.85 0.68 0.64 0.58 0.72 0.73 0.76 0.72 0.72 0.73 0.75 0.83 0.92 0.94 0.94 1.08 1.35 1.67 2.02 2.28 2.88 3.25 3.33 3.53 3.74 3.95 3.86 3.66 3.51 3.41 3.20 2.96 2.82 2.57 2.37 2.17 2.02
1.42 1.02 0.81 1.01 1.12 1.10 1.04 0.88 0.69 0.72 0.79 0.78 0.78 0.88 0.71 0.65 0.63 0.65 0.81 0.91 0.90 0.89 1.03 1.24 1.46 1.78 1.96 2.35 2.82 3.06 3.22 3.56 3.77 3.94 4.20 4.13 3.93 3.55 3.05 2.78 2.63 2.46 2.41 2.28
1.19 0.83 0.96 1.26 1.28 1.10 1.05 0.69 0.68 0.74 0.97 1.05 0.87 1.13 0.81 0.66 0.63 0.65 0.80 0.90 0.92 0.89 0.98 1.18 1.36 1.50 1.71 1.96 2.39 2.81 3.08 3.34 3.52 3.63 3.83 3.91 3.74 3.35 2.91 2.64 2.64 2.69 2.62 2.56
1.20 0.86 1.04 1.33 1.13 1.01 0.94 0.65 0.77 0.87 1.05 1.10 0.81 0.99 0.87 0.65 0.72 0.73 0.81 0.90 0.95 1.02 1.10 1.20 1.27 1.29 1.46 1.71 2.13 2.52 2.84 3.13 3.28 3.37 3.45 3.58 3.63 3.51 3.28 2.97 2.80 2.79 2.74 2.63
0.90 0.87 1.11 1.19 0.99 0.99 1.00 1.05 1.19 1.33 1.70 1.76 0.80 0.81 0.86 0.85 0.93 0.83 0.78 0.87 0.94 1.11 1.23 1.23 1.25 1.25 1.34 1.52 1.82 2.19 2.51 2.89 3.12 3.22 3.39 3.41 3.33 3.38 3.32 2.99 2.87 2.79 2.86 2.78
1.16 1.12 1.09 1.19 1.46 1.42 1.51 2.08 2.65 2.68 2.51 1.54 0.54 0.64 0.96 0.90 0.90 0.90 0.90 0.93 0.94 1.00 1.09 1.10 1.12 1.15 1.27 1.43 1.61 1.88 2.06 2.37 2.77 2.96 3.09 3.19 3.22 3.14 3.18 3.08 2.91 2.82 2.70 2.65
1.29 1.35 1.05 1.17 1.62 1.72 1.56 1.88 2.09 1.85 1.28 0.76 0.50 0.74 0.95 0.84 0.81 0.82 0.85 0.89 0.96 1.04 1.08 1.09 1.09 1.15 1.28 1.35 1.47 1.68 1.82 1.98 2.33 2.63 2.71 2.76 2.93 2.96 2.85 2.86 2.77 2.71 2.58 2.48
1.08 1.08 0.83 0.92 1.12 1.31 1.49 1.44 1.19 1.47 1.06 0.82 0.74 0.69 0.67 0.57 0.62 0.68 0.69 0.73 0.89 1.02 1.05 1.10 1.15 1.22 1.27 1.30 1.37 1.53 1.68 1.73 1.91 2.25 2.43 2.52 2.56 2.55 2.43 2.38 2.37 2.39 2.41 2.37
1.06 1.12 0.87 0.91 1.20 1.33 1.31 1.18 1.27 1.77 1.54 1.12 0.71 0.62 0.82 0.73 0.72 0.74 0.74 0.77 0.88 0.99 1.05 1.14 1.18 1.14 1.14 1.18 1.28 1.42 1.48 1.54 1.62 1.79 2.00 2.23 2.29 2.24 2.23 2.16 2.05 2.01 1.99 2.01
0.89 1.17 1.14 1.10 1.32 1.23 1.10 1.28 1.39 1.42 1.21 1.24 0.92 0.86 0.89 0.81 0.80 0.83 0.88 0.88 0.93 0.98 1.09 1.20 1.21 1.15 1.11 1.15 1.26 1.35 1.35 1.37 1.43 1.54 1.63 1.78 1.96 2.01 2.03 1.98 1.81 1.75 1.70 1.69
0.74 1.06 1.16 0.94 0.76 0.71 0.85 0.98 1.18 1.56 1.23 0.97 0.98 0.90 0.67 0.65 0.71 0.79 0.90 0.92 0.93 0.93 1.00 1.11 1.13 1.10 1.11 1.17 1.26 1.34 1.33 1.32 1.30 1.35 1.40 1.47 1.62 1.77 1.84 1.89 1.79 1.64 1.58 1.51
0.99 1.23 1.30 1.11 0.97 0.84 0.87 0.78 0.92 1.23 1.43 1.09 1.07 0.91 0.60 0.54 0.60 0.71 0.85 0.90 0.89 0.89 0.88 0.93 0.96 1.00 1.06 1.14 1.21 1.30 1.29 1.23 1.20 1.20 1.21 1.29 1.41 1.53 1.58 1.60 1.65 1.60 1.60 1.49
1.21 1.17 1.09 1.12 1.00 0.92 0.84 0.69 0.81 1.42 1.72 1.07 0.82 0.78 0.64 0.65 0.68 0.73 0.78 0.84 0.85 0.84 0.78 0.79 0.85 0.91 0.96 1.04 1.11 1.15 1.19 1.18 1.18 1.15 1.11 1.15 1.21 1.35 1.40 1.37 1.43 1.45 1.50 1.53
0.92 1.01 0.70 0.59 0.47 0.53 0.62 0.65 0.74 1.07 1.03 1.03 0.74 0.66 0.75 0.77 0.81 0.81 0.74 0.73 0.71 0.72 0.72 0.73 0.77 0.79 0.85 0.89 0.94 0.99 1.05 1.07 1.11 1.11 1.08 1.08 1.08 1.15 1.21 1.17 1.20 1.26 1.31 1.44
0.59 0.79 0.65 0.56 0.39 0.43 0.53 0.54 0.57 0.70 0.75 0.78 0.62 0.69 0.69 0.70 0.65 0.63 0.61 0.59 0.61 0.65 0.69 0.68 0.67 0.68 0.69 0.73 0.78 0.83 0.92 0.99 1.05 1.04 1.04 1.03 1.02 1.05 1.11 1.09 1.08 1.13 1.21 1.33
0.53 0.65 0.81 0.65 0.41 0.53 0.70 0.66 0.67 0.73 0.76 0.79 0.89 0.84 0.63 0.59 0.61 0.63 0.58 0.53 0.54 0.55 0.59 0.59 0.59 0.61 0.63 0.65 0.67 0.72 0.79 0.85 0.93 0.97 0.99 1.01 1.05 1.07 1.10 1.09 1.08 1.13 1.21 1.32
0.49 0.63 0.95 0.77 0.53 0.71 0.69 0.51 0.56 0.63 0.69 0.70 0.76 0.70 0.63 0.63 0.62 0.59 0.55 0.52 0.50 0.49 0.54 0.57 0.56 0.56 0.57 0.58 0.58 0.61 0.67 0.74 0.81 0.87 0.94 0.96 1.01 1.03 1.03 1.07 1.09 1.14 1.18 1.26
0.33 0.68 1.09 0.91 0.64 0.48 0.40 0.38 0.58 0.66 0.72 0.67 0.66 0.61 0.58 0.51 0.45 0.47 0.47 0.50 0.54 0.53 0.53 0.55 0.54 0.53 0.52 0.52 0.53 0.57 0.63 0.68 0.72 0.82 0.93 0.98 1.03 1.05 1.06 1.11 1.12 1.13 1.18 1.21
0.30 0.57 1.08 0.94 0.78 0.55 0.46 0.31 0.35 0.51 0.75 0.52 0.53 0.57 0.57 0.50 0.59 0.61 0.53 0.51 0.51 0.48 0.47 0.50 0.48 0.46 0.49 0.53 0.55 0.59 0.66 0.69 0.74 0.83 0.92 0.98 1.03 1.12 1.15 1.14 1.13 1.10 1.13 1.19
0.47 0.69 0.89 0.76 0.74 0.48 0.39 0.25 0.23 0.65 0.90 0.54 0.54 0.58 0.56 0.63 0.73 0.66 0.58 0.54 0.52 0.51 0.49 0.48 0.46 0.48 0.56 0.61 0.62 0.66 0.71 0.78 0.82 0.85 0.92 0.95 0.96 1.02 1.08 1.06 1.06 1.07 1.05 1.04
0.44 0.53 0.52 0.53 0.71 0.59 0.36 0.30 0.58 0.78 0.54 0.47 0.46 0.49 0.53 0.57 0.54 0.55 0.56 0.55 0.51 0.53 0.50 0.47 0.47 0.50 0.51 0.57 0.63 0.66 0.72 0.76 0.76 0.78 0.87 0.96 0.96 0.97 0.99 1.00 1.01 1.04 1.01 0.96
0.42 0.54 0.59 0.59 0.69 0.63 0.50 0.54 0.58 0.50 0.44 0.41 0.44 0.45 0.45 0.49 0.49 0.50 0.53 0.50 0.48 0.50 0.50 0.47 0.46 0.45 0.43 0.46 0.53 0.64 0.69 0.72 0.74 0.76 0.82 0.89 0.92 0.94 0.97 0.96 0.97 0.97 0.95 0.90
0.34 0.27 0.36 0.44 0.45 0.41 0.40 0.37 0.38 0.39 0.42 0.39 0.39 0.38 0.37 0.42 0.44 0.45 0.46 0.46 0.46 0.45 0.47 0.48 0.45 0.43 0.43 0.44 0.45 0.53 0.59 0.63 0.67 0.72 0.76 0.79 0.84 0.87 0.87 0.87 0.90 0.94 0.96 0.93
0.35 0.28 0.31 0.39 0.35 0.32 0.32 0.32 0.33 0.31 0.27 0.24 0.24 0.25 0.31 0.37 0.40 0.43 0.46 0.48 0.49 0.50 0.49 0.51 0.48 0.44 0.45 0.43 0.43 0.44 0.47 0.52 0.59 0.65 0.69 0.70 0.72 0.77 0.79 0.80 0.85 0.92 0.93 1.01
0.38 0.41 0.48 0.50 0.38 0.42 0.38 0.28 0.23 0.22 0.21 0.21 0.20 0.20 0.22 0.29 0.34 0.34 0.38 0.43 0.49 0.51 0.49 0.48 0.45 0.43 0.44 0.44 0.45 0.45 0.46 0.50 0.53 0.58 0.61 0.65 0.67 0.69 0.72 0.74 0.77 0.84 0.88 0.94